Location: Unspecified
(0.0000°N, 0.0000°E)
Time: 18:02:30
(UTC+00:00)

STARLINK 1064 - Pass Details

Date: 22 January 2020
Orbit: 549 x 551 km, 53.0° (Epoch: 23 January)

Event Time Altitude Azimuth Distance (km) Brightness Sun altitude
Rises 05:40:12 0° 238° (WSW) 2,717 6.8 -7.3°
Reaches altitude 10° 05:42:51 10° 254° (WSW) 1,820 5.8 -6.7°
Maximum altitude 05:46:01 21° 304° (NW) 1,254 4.9 -6.0°
Drops below altitude 10° 05:49:10 10° 355° (N) 1,811 6.0 -5.2°
Sets 05:51:48 0° 11° (N) 2,700 7.1 -4.6°
